Flag for U.S.A. Weather past 2 weeks in Savannah, Georgia, U.S.A.

Now
49 °F

Low clouds.


Feels Like: 46 °F
Forecast: 48 / 53 °F
Wind: 9 mph from Northeast

Location: Hunter U. S. Army Airfield

Current Time: Dec 21, 2014 at 8:16:53 AM

Latest Report: Dec 21, 2014 at 5:58 AM


Visibility: 10 mi

Pressure: 30.16 "Hg

Humidity: 99%

Dew point: 49 °F

Location of SavannahLocation

Historic Weather in Savannah — Graph

°F

Savannah temperature yesterday

Maximum temperature yesterday: 56 °F (at 2:58 PM)
Minimum temperature yesterday: 51 °F (at 12:58 AM)
Average temperature yesterday: 53 °F

Past Weeks' High & Low Weather Summary

 TemperatureHumidityPressure
High74 °F (Dec 16, 12:58 PM)100% (Dec 6, 5:58 AM)30.29 "Hg (Dec 6, 5:58 AM)
Low29 °F (Dec 12, 5:58 AM)22% (Dec 13, 2:58 PM)29.96 "Hg (Dec 9, 2:58 PM)
Average50 °F76%30.12 "Hg
* Reported Dec 6 5:58 AM — Dec 21 5:58 AM, Savannah, Weather by CustomWeather, © 2014

Note: Actual official high and low records may vary slightly from our data, if they occured in-between our weather recording intervals... More about our weather records

Advertising

Savannah weather history for previous 24 hours

 ConditionsComfort  
Time TempWeatherWind HumidityBarometerVisibility
5:58 AM
Dec 21
49 °FLow clouds.9 mph99%30.16 "Hg10 mi
5:00 AM50 °FLow clouds.9 mph100%30.15 "Hg10 mi
2:48 AM50 °FLow clouds.6 mph100%30.16 "Hg10 mi
1:58 AM51 °FLow clouds.7 mph98%30.17 "Hg10 mi
12:58 AM52 °FLow clouds.8 mph97%30.16 "Hg10 mi
11:46 PM
Dec 20
54 °FLow clouds.7 mph94%30.16 "Hg10 mi
10:59 PM54 °FLow clouds.7 mph100%30.17 "Hg10 mi
10:04 PM54 °FLight rain. Mostly cloudy.6 mph94%30.18 "Hg10 mi
9:58 PM54 °FMostly cloudy.7 mph94%30.18 "Hg10 mi
8:45 PM54 °FMostly cloudy.7 mph94%30.17 "Hg10 mi
7:58 PM54 °FDrizzle. Low clouds.6 mph93%30.17 "Hg10 mi
6:58 PM55 °FDrizzle. Low clouds.8 mph88%30.17 "Hg10 mi
5:53 PM55 °FPartly cloudy.6 mph88%30.13 "Hg10 mi
4:58 PM56 °FOvercast.5 mph90%30.14 "Hg10 mi
3:58 PM55 °FLow clouds.6 mph91%30.14 "Hg10 mi
2:58 PM56 °FLow clouds.6 mph91%30.12 "Hg10 mi
1:59 PM55 °FDrizzle. Low clouds.7 mph88%30.10 "Hg10 mi
1:58 PM54 °FLow clouds.9 mph91%30.11 "Hg10 mi
12:58 PM54 °FLow clouds.9 mph94%30.16 "Hg10 mi
11:58 AM54 °FPartly sunny.7 mph95%30.18 "Hg10 mi
10:58 AM53 °FPartly sunny.8 mph96%30.19 "Hg10 mi
9:58 AM52 °FOvercast.5 mph96%30.19 "Hg10 mi
8:59 AM52 °FScattered clouds.5 mph100%30.15 "Hg10 mi
Weather by CustomWeather, © 2014

See weather overviewHow to use our weather pages